JR0ZFO-13 Weather Reports


time (UTC)temp
C
wind
direction
speed
KPH
gust
KPH
rain 1hr
cm
rain 24hr
cm
rain mn
cm
humidity
%
barometer
mb
20260505153328 10 77 0.0 6.4 0.00 0.00 0.00 72 1024.0
20260505152826 10 205 0.0 6.4 0.00 0.00 0.00 72 1023.8
20260505152344 10 194 3.2 8.0 0.00 0.00 0.00 71 1023.9
20260505151822 11 39 1.6 8.0 0.00 0.00 0.00 71 1023.8
20260505151325 11 226 1.6 6.4 0.00 0.00 0.00 71 1023.8
20260505150844 10 219 1.6 4.8 0.00 0.00 0.00 73 1023.9
20260505150321 10 67 0.0 3.2 0.00 0.00 0.00 73 1023.7
20260505140319 11 198 0.0 1.6 0.00 0.00 0.00 71 1023.7
20260505124823 11 58 0.0 1.6 0.00 0.00 0.00 72 1023.5
20260505124322 11 58 0.0 0.0 0.00 0.00 0.00 71 1023.5
20260505123821 11 58 0.0 0.0 0.00 0.00 0.00 71 1023.5
20260505123341 11 58 0.0 0.0 0.00 0.00 0.00 71 1023.4
20260505122817 11 58 0.0 0.0 0.00 0.00 0.00 70 1023.4
20260505122314 11 58 0.0 0.0 0.00 0.00 0.00 70 1023.3
20260505121813 12 58 0.0 1.6 0.00 0.00 0.00 69 1023.3
20260505121333 12 58 0.0 1.6 0.00 0.00 0.00 68 1023.2
20260505120852 12 57 0.0 1.6 0.00 0.00 0.00 66 1023.2
20260505120351 12 58 0.0 4.8 0.00 0.00 0.00 65 1023.1
20260505115827 12 58 0.0 6.4 0.00 0.00 0.00 65 1023.0
20260505115325 12 56 1.6 6.4 0.00 0.00 0.00 67 1023.0
20260505114843 12 192 0.0 0.0 0.00 0.00 0.00 66 1022.9
20260505114320 12 192 0.0 0.0 0.00 0.00 0.00 65 1022.8
20260505113818 12 192 0.0 0.0 0.00 0.00 0.00 64 1022.8
20260505113317 12 192 0.0 1.6 0.00 0.00 0.00 64 1022.8
20260505112836 13 188 0.0 1.6 0.00 0.00 0.00 63 1022.6
20260505112312 13 48 0.0 1.6 0.00 0.00 0.00 60 1022.5
20260505111832 13 48 0.0 1.6 0.00 0.00 0.00 54 1022.5
20260505111332 13 48 0.0 3.2 0.00 0.00 0.00 53 1022.2
20260505110829 13 33 0.0 3.2 0.00 0.00 0.00 53 1022.1
20260505110328 13 30 0.0 3.2 0.00 0.00 0.00 53 1022.1
20260505101821 15 44 6.4 12.9 0.00 0.00 0.00 50 1021.6
20260505101319 15 56 6.4 11.3 0.00 0.00 0.00 50 1021.5
20260505100818 15 73 4.8 11.3 0.00 0.00 0.00 49 1021.4
20260505100315 15 60 6.4 12.9 0.00 0.00 0.00 49 1021.4
20260505095814 15 67 6.4 12.9 0.00 0.00 0.00 48 1021.2
20260505095313 16 73 3.2 8.0 0.00 0.00 0.00 48 1021.3
20260505094852 16 19 3.2 9.7 0.00 0.00 0.00 48 1021.2
20260505094329 16 58 4.8 9.7 0.00 0.00 0.00 47 1021.3
20260505093828 16 17 3.2 9.7 0.00 0.00 0.00 47 1021.2
20260505093348 17 58 1.6 8.0 0.00 0.00 0.00 47 1021.1
20260505092830 17 43 1.6 11.3 0.00 0.00 0.00 46 1021.0
20260505092350 17 18 4.8 11.3 0.00 0.00 0.00 45 1020.9
20260505091827 18 20 1.6 11.3 0.00 0.00 0.00 44 1020.8
20260505091326 18 349 3.2 11.3 0.00 0.00 0.00 44 1020.8
20260505090826 18 30 1.6 9.7 0.00 0.00 0.00 43 1020.7
20260505090324 18 61 3.2 8.0 0.00 0.00 0.00 43 1020.6
20260505085822 19 3 1.6 8.0 0.00 0.00 0.00 43 1020.6
20260505085321 19 237 1.6 14.5 0.00 0.00 0.00 43 1020.5
20260505084840 19 323 3.2 14.5 0.00 0.00 0.00 42 1020.5
20260505084317 20 326 6.4 11.3 0.00 0.00 0.00 41 1020.5
20260505083815 20 34 3.2 9.7 0.00 0.00 0.00 41 1020.5
20260505083334 20 349 1.6 12.9 0.00 0.00 0.00 41 1020.4
20260505082832 21 6 6.4 14.5 0.00 0.00 0.00 40 1020.3
20260505082331 21 58 6.4 14.5 0.00 0.00 0.00 37 1020.2
20260505081830 22 338 1.6 8.0 0.00 0.00 0.00 33 1020.2
20260505081328 22 20 0.0 8.0 0.00 0.00 0.00 27 1020.2
20260505080848 22 34 3.2 6.4 0.00 0.00 0.00 27 1020.1
20260505080324 22 51 3.2 6.4 0.00 0.00 0.00 27 1020.2
20260505075823 22 321 0.0 9.7 0.00 0.00 0.00 27 1020.2
20260505075327 22 321 1.6 9.7 0.00 0.00 0.00 28 1020.1
20260505074826 22 39 4.8 8.0 0.00 0.00 0.00 27 1020.1
20260505074323 23 342 1.6 4.8 0.00 0.00 0.00 28 1020.1
20260505073820 22 356 0.0 9.7 0.00 0.00 0.00 28 1020.0
20260505073320 22 44 4.8 9.7 0.00 0.00 0.00 28 1019.9
20260505072818 22 15 1.6 8.0 0.00 0.00 0.00 28 1019.8
20260505072316 22 68 3.2 8.0 0.00 0.00 0.00 27 1019.9
20260505071814 22 57 0.0 8.0 0.00 0.00 0.00 27 1019.9
20260505071332 22 31 1.6 9.7 0.00 0.00 0.00 28 1019.8
20260505070831 22 37 3.2 8.0 0.00 0.00 0.00 27 1019.8
20260505070330 23 348 0.0 4.8 0.00 0.00 0.00 27 1019.7
20260505065849 22 226 1.6 8.0 0.00 0.00 0.00 27 1019.7
20260505065346 22 322 1.6 11.3 0.00 0.00 0.00 28 1019.8
20260505064824 22 59 6.4 12.9 0.00 0.00 0.00 28 1019.7
20260505064322 21 53 4.8 12.9 0.00 0.00 0.00 29 1019.8
20260505063819 21 27 6.4 11.3 0.00 0.00 0.00 27 1019.8
20260505063319 21 281 3.2 9.7 0.00 0.00 0.00 28 1019.9
20260505062817 21 345 1.6 9.7 0.00 0.00 0.00 28 1019.9
20260505062336 21 33 3.2 9.7 0.00 0.00 0.00 28 1019.9
20260505061814 21 13 3.2 8.0 0.00 0.00 0.00 29 1020.0
20260505061312 22 37 3.2 8.0 0.00 0.00 0.00 27 1020.0
20260505060831 22 58 0.0 6.4 0.00 0.00 0.00 29 1020.0
20260505060351 21 265 3.2 9.7 0.00 0.00 0.00 29 1020.1
20260505055829 21 44 4.8 9.7 0.00 0.00 0.00 29 1020.1
20260505055328 21 11 3.2 9.7 0.00 0.00 0.00 30 1020.1
20260505054825 21 236 3.2 9.7 0.00 0.00 0.00 30 1020.2
20260505054345 21 360 1.6 9.7 0.00 0.00 0.00 31 1020.2
20260505053822 21 333 1.6 11.3 0.00 0.00 0.00 31 1020.3
20260505053342 21 16 4.8 11.3 0.00 0.00 0.00 30 1020.4
20260505052823 21 23 3.2 11.3 0.00 0.00 0.00 30 1020.6
20260505052342 21 233 4.8 16.1 0.00 0.00 0.00 29 1020.6
20260505051819 21 248 4.8 16.1 0.00 0.00 0.00 27 1020.6
20260505051317 21 233 1.6 8.0 0.00 0.00 0.00 27 1020.8
20260505050817 21 231 3.2 8.0 0.00 0.00 0.00 27 1020.9
20260505050316 21 209 3.2 9.7 0.00 0.00 0.00 29 1020.9
20260505041317 20 89 4.8 8.0 0.00 0.00 0.00 34 1021.8
20260505040816 20 215 3.2 8.0 0.00 0.00 0.00 31 1021.8
20260505040314 20 41 1.6 6.4 0.00 0.00 0.00 33 1021.9
20260505035854 18 41 0.0 9.7 0.00 0.00 0.00 36 1022.1
20260505035329 18 34 6.4 9.7 0.00 0.00 0.00 34 1022.1
20260505034828 18 219 1.6 9.7 0.00 0.00 0.00 34 1022.1
20260505034327 18 39 4.8 11.3 0.00 0.00 0.00 34 1022.3
20260505033826 18 35 6.4 11.3 0.00 0.00 0.00 34 1022.2
20260505033325 19 55 3.2 4.8 0.00 0.00 0.00 34 1022.5
20260505032823 20 258 0.0 8.0 0.00 0.00 0.00 36 1022.5
20260505032322 18 273 3.2 8.0 0.00 0.00 0.00 37 1022.5
20260505031819 18 219 3.2 8.0 0.00 0.00 0.00 35 1022.6
20260505031318 18 257 3.2 6.4 0.00 0.00 0.00 35 1022.6
20260505030820 18 220 1.6 8.0 0.00 0.00 0.00 36 1022.7
20260505025825 17 39 6.4 14.5 0.00 0.00 0.00 37 1022.8
20260505025323 17 263 3.2 12.9 0.00 0.00 0.00 37 1022.8
20260505024821 17 53 0.0 14.5 0.00 0.00 0.00 40 1023.0
20260505024341 18 3 1.6 11.3 0.00 0.00 0.00 37 1023.1
20260505023817 17 234 1.6 16.1 0.00 0.00 0.00 37 1023.0
20260505023316 17 234 1.6 16.1 0.00 0.00 0.00 37 1023.1
20260505022814 17 103 3.2 14.5 0.00 0.00 0.00 37 1023.1
20260505022312 16 248 1.6 14.5 0.00 0.00 0.00 39 1023.2
20260505021831 16 51 4.8 12.9 0.00 0.00 0.00 37 1023.2
20260505021328 16 87 8.0 16.1 0.00 0.00 0.00 37 1023.2
20260505020827 16 58 8.0 16.1 0.00 0.00 0.00 37 1023.3
20260505020326 16 36 3.2 12.9 0.00 0.00 0.00 37 1023.3
20260505015825 16 207 1.6 9.7 0.00 0.00 0.00 38 1023.5
20260505015324 16 262 3.2 9.7 0.00 0.00 0.00 38 1023.4
20260505014822 16 136 1.6 9.7 0.00 0.00 0.00 39 1023.4
20260505014321 16 235 1.6 9.7 0.00 0.00 0.00 40 1023.5
20260505013817 16 63 0.0 6.4 0.00 0.00 0.00 42 1023.5
20260505013316 16 271 1.6 4.8 0.00 0.00 0.00 43 1023.5
20260505012814 15 134 0.0 9.7 0.00 0.00 0.00 47 1023.6
20260505012312 15 194 6.4 9.7 0.00 0.00 0.00 45 1023.6
20260505011852 15 217 1.6 6.4 0.00 0.00 0.00 45 1023.6
20260505011330 15 240 1.6 6.4 0.00 0.00 0.00 48 1023.6
20260505010828 15 208 4.8 6.4 0.00 0.00 0.00 46 1023.7
20260505010327 15 283 0.0 6.4 0.00 0.00 0.00 48 1023.7
20260505005829 14 231 0.0 8.0 0.00 0.00 0.00 48 1023.7
20260505005327 14 216 1.6 8.0 0.00 0.00 0.00 50 1023.8
20260505004847 14 231 3.2 9.7 0.00 0.00 0.00 48 1023.7
20260505004323 14 193 3.2 6.4 0.00 0.00 0.00 50 1023.7
20260505003821 13 30 3.2 6.4 0.00 0.00 0.00 51 1023.8
20260505003319 13 234 1.6 6.4 0.00 0.00 0.00 53 1023.7
20260505002817 13 211 0.0 8.0 0.00 0.00 0.00 56 1023.7
20260505002316 13 185 3.2 8.0 0.00 0.00 0.00 55 1023.7
20260505001814 12 260 3.2 8.0 0.00 0.00 0.00 58 1023.8
20260505001331 12 226 3.2 8.0 0.00 0.00 0.00 59 1023.8
20260505000829 12 255 3.2 8.0 0.00 0.00 0.00 58 1023.8
20260505000327 12 3 0.0 8.0 0.00 0.00 0.00 61 1023.7
20260504235822 12 253 3.2 6.4 0.00 0.00 0.00 60 1023.6
20260504235321 12 211 1.6 6.4 0.00 0.00 0.00 61 1023.6
20260504234818 11 223 1.6 8.0 0.00 0.00 0.00 64 1023.5
20260504234316 11 266 3.2 6.4 0.00 0.00 0.00 64 1023.6
20260504233815 11 199 3.2 6.4 0.00 0.00 0.00 64 1023.6
20260504233314 11 221 3.2 8.0 0.00 0.00 0.00 63 1023.6
20260504232832 11 221 0.0 8.0 0.00 0.00 0.00 66 1023.7
20260504232353 10 276 0.0 6.4 0.00 0.00 0.00 67 1023.8
20260504231831 11 203 3.2 6.4 0.00 0.00 0.00 69 1023.7
20260504231330 10 218 0.0 3.2 0.00 0.00 0.00 71 1023.7
20260504230849 10 222 0.0 3.2 0.00 0.00 0.00 71 1023.7
20260504230325 10 306 0.0 6.4 0.00 0.00 0.00 72 1023.7
20260504225823 10 337 1.6 4.8 0.00 0.00 0.00 72 1023.6
20260504225342 9 190 0.0 4.8 0.00 0.00 0.00 72 1023.6
20260504224819 9 242 1.6 4.8 0.00 0.00 0.00 73 1023.5
20260504224318 9 192 1.6 4.8 0.00 0.00 0.00 73 1023.5
20260504223822 9 17 1.6 6.4 0.00 0.00 0.00 73 1023.5
20260504223320 9 278 0.0 6.4 0.00 0.00 0.00 74 1023.5
20260504222818 9 207 1.6 4.8 0.00 0.00 0.00 75 1023.4
20260504222317 8 235 0.0 4.8 0.00 0.00 0.00 74 1023.4
20260504221815 8 247 1.6 3.2 0.00 0.10 0.00 75 1023.3
20260504221314 8 261 1.6 4.8 0.00 0.10 0.00 75 1023.3
20260504220813 8 211 1.6 4.8 0.00 0.10 0.00 74 1023.3
20260504220312 9 100 0.0 0.0 0.00 0.10 0.00 74 1023.1
20260504215832 9 196 0.0 0.0 0.00 0.10 0.00 73 1023.0
20260504215329 9 206 0.0 0.0 0.00 0.10 0.00 73 1023.1
20260504214827 8 198 0.0 0.0 0.00 0.10 0.00 74 1023.0
20260504214325 8 247 0.0 0.0 0.00 0.10 0.00 75 1023.0
20260504213822 8 247 0.0 0.0 0.00 0.10 0.00 75 1022.9
20260504213320 8 216 0.0 0.0 0.00 0.10 0.00 74 1022.8
20260504212839 8 73 0.0 0.0 0.00 0.10 0.00 74 1022.7
20260504212315 8 72 0.0 0.0 0.00 0.10 0.00 77 1022.7
20260504211812 7 72 0.0 0.0 0.00 1.40 0.00 77 1022.6
20260504211332 7 74 0.0 0.0 0.00 1.40 0.00 78 1022.5
20260504210830 7 73 0.0 0.0 0.00 1.40 0.00 80 1022.4
20260504210328 7 73 0.0 0.0 0.00 1.40 0.00 79 1022.3
20260504205825 7 90 0.0 0.0 0.00 1.40 0.00 80 1022.2
20260504205324 6 90 0.0 0.0 0.00 1.40 0.00 81 1022.1
20260504204844 6 90 0.0 0.0 0.00 1.40 0.00 83 1021.9
20260504204342 5 89 0.0 0.0 0.00 1.40 0.00 85 1021.9
20260504203841 5 90 0.0 0.0 0.00 1.40 0.00 86 1021.7
20260504203317 5 89 0.0 0.0 0.00 1.40 0.00 86 1021.7
20260504202815 5 89 0.0 0.0 0.00 1.40 0.00 85 1021.7
20260504202312 5 90 0.0 0.0 0.00 1.40 0.00 85 1021.7
20260504201852 5 90 0.0 0.0 0.00 2.39 0.00 85 1021.6
20260504201312 5 89 0.0 0.0 0.00 2.39 0.00 86 1021.5
20260504200831 4 105 0.0 0.0 0.00 2.39 0.00 86 1021.5
20260504200330 4 197 0.0 0.0 0.00 2.39 0.00 85 1021.4
20260504195829 4 197 0.0 0.0 0.00 2.39 0.00 85 1021.5
20260504195327 5 197 0.0 0.0 0.00 2.39 0.00 85 1021.1
20260504194826 4 197 0.0 0.0 0.00 2.39 0.00 85 1021.1
20260504194322 5 198 0.0 0.0 0.00 2.39 0.00 84 1020.9
20260504193819 5 198 0.0 0.0 0.00 2.39 0.00 84 1020.9
20260504193317 5 198 0.0 0.0 0.00 2.39 0.00 84 1020.8
20260504192815 5 198 0.0 0.0 0.00 2.39 0.00 84 1020.8
20260504192313 5 60 0.0 0.0 0.00 2.39 0.00 85 1020.6
20260504191832 5 59 0.0 0.0 0.00 2.39 0.00 86 1020.6
20260504191352 5 59 0.0 0.0 0.00 2.39 0.00 87 1020.5
20260504190829 5 59 0.0 0.0 0.00 2.39 0.00 88 1020.4
20260504190325 5 59 0.0 0.0 0.00 2.39 0.00 87 1020.4
20260504185823 5 58 0.0 0.0 0.00 2.39 0.00 86 1020.3
20260504185344 5 58 0.0 0.0 0.00 2.39 0.00 87 1020.2
20260504184819 5 58 0.0 0.0 0.00 2.39 0.00 86 1020.3
20260504184338 5 58 0.0 0.0 0.00 2.39 0.00 86 1020.2
20260504183814 5 58 0.0 0.0 0.00 2.39 0.00 86 1020.1
20260504183312 5 58 0.0 0.0 0.00 2.39 0.00 85 1020.1
20260504182832 5 58 0.0 0.0 0.00 2.39 0.00 85 1020.0
20260504182330 5 58 0.0 0.0 0.00 2.39 0.00 85 1019.9
20260504181828 5 58 0.0 0.0 0.00 2.49 0.00 83 1019.8
20260504181326 5 58 0.0 0.0 0.00 2.49 0.00 82 1019.7
20260504180846 6 58 0.0 0.0 0.00 2.49 0.00 82 1019.6
20260504180327 6 58 0.0 0.0 0.00 2.49 0.00 82 1019.6
20260504175826 6 58 0.0 0.0 0.00 2.49 0.00 81 1019.5
20260504175346 6 58 0.0 0.0 0.00 2.49 0.00 80 1019.4
20260504174823 6 58 0.0 1.6 0.00 2.49 0.00 79 1019.3
20260504174321 6 58 0.0 1.6 0.00 2.49 0.00 78 1019.2
20260504173819 7 58 0.0 1.6 0.00 2.49 0.00 77 1019.2
20260504173317 7 55 0.0 0.0 0.00 2.49 0.00 76 1019.2
20260504172814 7 55 0.0 1.6 0.00 2.49 0.00 76 1019.1
20260504172334 7 55 0.0 1.6 0.00 2.49 0.00 75 1019.1
20260504171832 7 55 0.0 1.6 0.00 3.51 0.00 75 1019.1
20260504171332 7 55 0.0 4.8 0.00 3.51 0.00 74 1019.0
20260504170831 7 55 1.6 4.8 0.00 3.51 0.00 74 1019.0
20260504170330 7 56 0.0 6.4 0.00 3.51 0.00 74 1018.9
20260504160315 8 86 6.4 16.1 0.00 3.81 0.00 76 1018.4